This demonstration page uses our WeatherBlox Daily Observations layout. Learn more.

40.92945, -100.16068

Hourly Observations for March 12, 2020

Temp ( °F °C ) Dew Point ( °F °C ) Humidity (%) Winds ( mph kmh ) Pressure ( in mb ) Visibility ( mi km ) Precip ( " mm )
12:15 am 00:15 Clear 55 13 38 3.5 53 53 SW 18 30 29.66 1005 10 16.0934 0 0
12:35 am 00:35 Clear 55 12.8 38 3.6 54 54 SSW 17 28 29.65 1004 10 16.0934 0 0
12:55 am 00:55 Clear 57 13.9 38 3.5 50 50 SSW 18 30 29.63 1003 10 16.0934 0 0
1:15 am 01:15 Partly Cloudy 57 14 38 3.6 50 50 SSW 14 22 29.63 1003 10 16.0934 0 0
1:35 am 01:35 Cloudy 55 12.9 39 3.8 54 54 NW 9 15 29.65 1004 10 16.0934 0 0
1:55 am 01:55 Partly Cloudy 57 14 38 3.5 49 49 WSW 6 9 29.64 1004 10 16.0934 0 0
2:15 am 02:15 Mostly Cloudy 56 13.5 39 3.8 52 52 SW 8 13 29.64 1004 10 16.0934 0 0
2:35 am 02:35 Cloudy with Light Rain 54 12.2 40 4.3 59 59 Calm 29.64 1004 10 16.0934 0 0
2:55 am 02:55 Partly Cloudy 54 12.2 40 4.4 59 59 SW 9 15 29.64 1004 10 16.0934 0 0
3:15 am 03:15 Clear 54 12.1 41 5.2 63 63 SSW 12 19 29.62 1003 10 16.0934 0 0
3:35 am 03:35 Clear 54 12.2 42 5.5 64 64 SSW 9 15 29.62 1003 10 16.0934 0 0
3:55 am 03:55 Clear 52 11.2 42 5.5 68 68 SSW 9 15 29.62 1003 10 16.0934 0 0
4:15 am 04:15 Partly Cloudy 49 9.4 41 5 74 74 SW 8 13 29.65 1004 10 16.0934 0 0
4:35 am 04:35 Partly Cloudy 51 10.3 41 5.2 71 71 WSW 6 9 29.63 1003 10 16.0934 0 0
4:55 am 04:55 Clear 50 10.2 41 5.2 71 71 WSW 8 13 29.64 1004 10 16.0934 0 0
5:15 am 05:15 Clear 47 8.6 40 4.2 74 74 WSW 8 13 29.64 1004 10 16.0934 0 0
5:35 am 05:35 Clear 47 8.3 38 3.2 71 71 W 8 13 29.65 1004 10 16.0934 0 0
5:55 am 05:55 Clear 44 6.9 37 2.5 74 74 W 8 13 29.67 1005 10 16.0934 0 0
6:15 am 06:15 Clear 49 9.3 36 2.3 62 62 NW 16 26 29.67 1005 10 16.0934 0 0
6:35 am 06:35 Clear 47 8.2 36 2.2 66 66 NW 17 28 29.7 1006 10 16.0934 0 0
6:55 am 06:55 Clear 46 7.8 33 0.8 62 62 N 26 43 29.73 1007 10 16.0934 0 0
7:15 am 07:15 Clear 44 6.4 33 0.4 66 66 N 24 39 29.76 1008 10 16.0934 0 0
7:35 am 07:35 Clear 42 5.5 34 1 73 73 N 18 30 29.8 1009 10 16.0934 0 0
7:55 am 07:55 Sunny 41 5 34 1.1 76 76 NNW 18 30 29.83 1010 10 16.0934 0 0
8:15 am 08:15 Sunny 41 5.2 34 1.1 75 75 NNW 16 26 29.83 1010 10 16.0934 0 0
8:35 am 08:35 Sunny 41 5.1 34 1.3 77 77 NNW 8 13 29.85 1011 10 16.0934 0 0
8:55 am 08:55 Sunny 43 6.1 35 1.6 73 73 NNW 18 30 29.86 1011 10 16.0934 0 0
9:15 am 09:15 Sunny 44 6.5 36 2.1 74 74 N 22 35 29.85 1011 10 16.0934 0 0
9:35 am 09:35 Partly Cloudy 44 6.4 36 2 74 74 N 28 44 29.87 1012 10 16.0934 0 0
9:55 am 09:55 Mostly Cloudy 46 7.5 36 2.2 69 69 N 21 33 29.86 1011 10 16.0934 0 0
10:15 am 10:15 Partly Cloudy 47 8.1 36 2.2 67 67 NNW 25 41 29.88 1012 10 16.0934 0 0
10:35 am 10:35 Partly Cloudy 47 8.5 36 2.1 64 64 N 28 44 29.88 1012 10 16.0934 0 0
10:55 am 10:55 Sunny 49 9.4 36 2.3 62 62 N 23 37 29.88 1012 10 16.0934 0 0
11:15 am 11:15 Partly Cloudy 49 9.7 36 2 59 59 N 24 39 29.89 1012 10 16.0934 0 0
11:35 am 11:35 Mostly Cloudy 50 10.1 36 2.2 58 58 NNW 25 41 29.9 1013 10 16.0934 0 0
11:55 am 11:55 Cloudy 48 9.1 35 1.7 60 60 NNW 23 37 29.92 1013 10 16.0934 0 0
12:15 pm 12:15 Cloudy 47 8.5 35 1.4 61 61 N 26 43 29.95 1014 10 16.0934 0 0
12:35 pm 12:35 Cloudy 47 8.6 34 1.1 60 60 N 26 43 29.95 1014 10 16.0934 0 0
12:55 pm 12:55 Cloudy 49 9.5 34 1.1 56 56 N 21 33 29.95 1014 10 16.0934 0 0
1:15 pm 13:15 Cloudy 50 10.1 34 0.9 53 53 NNW 23 37 29.95 1014 10 16.0934 0 0
1:35 pm 13:35 Mostly Cloudy 50 10.1 32 0.1 50 50 N 25 41 29.95 1014 10 16.0934 0 0
1:55 pm 13:55 Mostly Cloudy 50 10.1 32 0 50 50 N 23 37 29.95 1014 10 16.0934 0 0
2:15 pm 14:15 Partly Cloudy 50 10 30 -1.2 46 46 N 24 39 29.96 1015 10 16.0934 0 0
2:35 pm 14:35 Sunny 50 10 29 -1.6 45 45 N 20 31 29.95 1014 10 16.0934 0 0
2:55 pm 14:55 Sunny 51 10.6 29 -1.4 44 44 N 21 33 29.96 1014 10 16.0934 0 0
3:15 pm 15:15 Sunny 51 10.3 28 -2.5 41 41 N 20 31 29.96 1015 10 16.0934 0 0
3:35 pm 15:35 Sunny 51 10.3 27 -2.8 40 40 N 18 30 29.96 1015 10 16.0934 0 0
3:55 pm 15:55 Sunny 50 10 27 -3 40 40 N 22 35 29.97 1015 10 16.0934 0 0
4:15 pm 16:15 Sunny 51 10.7 27 -3 38 38 N 22 35 29.96 1015 10 16.0934 0 0
4:35 pm 16:35 Sunny 52 11.1 26 -3.3 37 37 NNW 22 35 29.97 1015 10 16.0934 0 0
4:55 pm 16:55 Sunny 51 10.8 25 -4 35 35 N 18 30 29.97 1015 10 16.0934 0 0
5:15 pm 17:15 Sunny 51 10.5 24 -4.6 35 35 N 22 35 29.99 1015 10 16.0934 0 0
5:35 pm 17:35 Sunny 50 10 24 -4.2 37 37 N 13 20 30 1016 10 16.0934 0 0
5:55 pm 17:55 Sunny 50 10 24 -4.2 37 37 N 18 30 30.01 1016 10 16.0934 0 0
6:15 pm 18:15 Sunny 49 9.6 23 -4.8 36 36 N 17 28 30.03 1017 10 16.0934 0 0
6:35 pm 18:35 Sunny 49 9.2 23 -5.1 36 36 N 18 30 30.05 1018 10 16.0934 0 0
6:55 pm 18:55 Sunny 47 8.6 22 -5.6 36 36 N 14 22 30.06 1018 10 16.0934 0 0
7:15 pm 19:15 Sunny 46 8 22 -5.8 37 37 N 14 22 30.08 1019 10 16.0934 0 0
7:35 pm 19:35 Sunny 44 6.7 21 -6 40 40 N 10 17 30.1 1019 10 16.0934 0 0
7:55 pm 19:55 Clear 42 5.4 22 -5.7 45 45 N 8 13 30.13 1020 10 16.0934 0 0
8:15 pm 20:15 Clear 39 3.8 22 -5.5 51 51 N 9 15 30.15 1021 10 16.0934 0 0
8:35 pm 20:35 Clear 39 3.7 22 -5.5 51 51 NNE 8 13 30.15 1021 10 16.0934 0 0
8:55 pm 20:55 Clear 37 2.6 22 -5.4 56 56 NNE 5 7 30.17 1022 10 16.0934 0 0
9:15 pm 21:15 Partly Cloudy 36 2 21 -5.9 56 56 N 5 7 30.19 1022 10 16.0934 0 0
9:35 pm 21:35 Partly Cloudy 34 1.1 22 -5.5 62 62 N 6 9 30.21 1023 10 16.0934 0 0
9:55 pm 21:55 Clear 32 -0.1 21 -5.9 65 65 N 3 6 30.23 1024 10 16.0934 0 0
10:15 pm 22:15 Clear 31 -0.4 22 -5.6 68 68 Calm 30.23 1024 10 16.0934 0 0
10:35 pm 22:35 Clear 31 -0.3 21 -6 66 66 N 5 7 30.24 1024 10 16.0934 0 0
10:55 pm 22:55 Clear 30 -1 22 -5.4 72 72 Calm 30.26 1025 10 16.0934 0 0
11:15 pm 23:15 Clear 29 -1.7 22 -5.5 76 76 SW 3 6 30.28 1026 10 16.0934 0 0
11:35 pm 23:35 Clear 30 -1.2 22 -5.5 73 73 Calm 30.28 1025 10 16.0934 0 0
11:55 pm 23:55 Clear 28 -2.1 23 -5.2 80 80 WSW 3 6 30.3 1026 10 16.0934 0 0

Powered by AerisWeather